Weather History for Wink, TX

Change the Weather History Date:

Tuesday, November 26, 2013

  Actual Average Record
Temperature  
Mean Temperature 40 °F -  
Max Temperature 53 °F 66 °F 84 °F (1949)
Min Temperature 28 °F 35 °F 9 °F (1993)
Degree Days  
Heating Degree Days 24    
Moisture  
Dew Point 26 °F    
Average Humidity 60    
Maximum Humidity 85    
Minimum Humidity 31    
Precipitation  
Precipitation 0.00 in - - ()
Sea Level Pressure  
Sea Level Pressure 30.35 in    
Wind  
Wind Speed 12 mph (North)    
Max Wind Speed 18 mph    
Max Gust Speed 24 mph    
Visibility 10 miles    
Events      
Averages and records for this station are not official NWS values.
T = Trace of Precipitation, MM = Missing Value Source: NWS Daily Summary

Daily Weather History Graph

Daily Weather History Graph

Search for Another Location

Airport:

Trip Planner

Search our weather history database for the weather conditions in past years. The results will help you decide how hot, cold, wet, or windy it might be!

Date:

Astronomy

Nov. 26, 2013 Rise Set
Actual Time 7:30 AM CST 5:49 PM CST
Civil Twilight 7:04 AM CST 6:15 PM CST
Nautical Twilight 6:34 AM CST 6:45 PM CST
Astronomical Twilight 6:05 AM CST 7:14 PM CST
Moon 1:00 AM CST (11/26) 1:35 PM CST (11/26)
Length of Visible Light 11h 11m
Length of Day
10h 18m
Last Quarter, 41% of the Moon is Illuminated
Nov 26
Last Quarter
Dec 2
New
Dec 9
First Quarter
Dec 17
Full
Dec 25
Last Quarter

Hourly Weather History & Observations

Time (CST) Temp. Windchill Dew Point Humidity Pressure Visibility Wind Dir Wind Speed Gust Speed Precip Events Conditions
12:53 AM 36.0 °F 25.6 °F 26.1 °F 67% 30.25 in 10.0 mi North 18.4 mph - N/A   Overcast
1:53 AM 36.0 °F 26.0 °F 26.1 °F 67% 30.27 in 10.0 mi North 17.3 mph 24.2 mph N/A   Overcast
2:24 AM 35.1 °F 25.9 °F 26.1 °F 70% 30.28 in 10.0 mi North 13.8 mph - N/A   Overcast
2:32 AM 36.0 °F 28.0 °F 26.1 °F 67% 30.28 in 10.0 mi North 11.5 mph - N/A   Overcast
2:53 AM 36.0 °F 26.7 °F 26.1 °F 67% 30.27 in 10.0 mi North 15.0 mph - N/A   Overcast
3:53 AM 35.1 °F 26.4 °F 26.1 °F 70% 30.29 in 10.0 mi NNE 12.7 mph 21.9 mph N/A   Overcast
4:53 AM 33.1 °F 24.9 °F 25.0 °F 72% 30.30 in 10.0 mi NNW 10.4 mph - N/A   Scattered Clouds
5:53 AM 30.9 °F 25.2 °F 26.1 °F 82% 30.31 in 10.0 mi NW 5.8 mph - N/A   Clear
6:53 AM 28.9 °F 22.8 °F 25.0 °F 85% 30.33 in 10.0 mi West 5.8 mph - N/A   Clear
7:53 AM 30.9 °F 26.2 °F 26.1 °F 82% 30.36 in 10.0 mi WNW 4.6 mph - N/A   Clear
8:53 AM 36.0 °F 29.0 °F 27.0 °F 70% 30.38 in 10.0 mi NW 9.2 mph - N/A   Clear
9:53 AM 41.0 °F 33.9 °F 25.0 °F 53% 30.40 in 10.0 mi NNW 12.7 mph - N/A   Clear
10:53 AM 45.0 °F 38.5 °F 24.1 °F 44% 30.41 in 10.0 mi North 13.8 mph 19.6 mph N/A   Clear
11:53 AM 48.0 °F - 21.9 °F 36% 30.40 in 10.0 mi North 11.5 mph - N/A   Clear
12:53 PM 50.0 °F - 21.9 °F 33% 30.38 in 10.0 mi NNE 8.1 mph - N/A   Clear
1:53 PM 52.0 °F - 23.0 °F 32% 30.36 in 10.0 mi North 11.5 mph 18.4 mph N/A   Clear
2:53 PM 53.1 °F - 23.0 °F 31% 30.35 in 10.0 mi North 11.5 mph 16.1 mph N/A   Clear
3:53 PM 53.1 °F - 24.1 °F 32% 30.35 in 10.0 mi North 8.1 mph - N/A   Clear
4:53 PM 53.1 °F - 24.1 °F 32% 30.36 in 10.0 mi North 9.2 mph - N/A   Clear
5:53 PM 48.9 °F - 26.1 °F 41% 30.37 in 10.0 mi North 8.1 mph - N/A   Clear
6:53 PM 45.0 °F 41.2 °F 28.0 °F 52% 30.40 in 10.0 mi North 6.9 mph - N/A   Clear
7:53 PM 39.9 °F 35.1 °F 28.9 °F 65% 30.42 in 10.0 mi North 6.9 mph - N/A   Clear
8:53 PM 37.9 °F 33.5 °F 28.9 °F 70% 30.43 in 10.0 mi NNW 5.8 mph - N/A   Clear
9:53 PM 37.0 °F 33.3 °F 28.9 °F 73% 30.43 in 10.0 mi North 4.6 mph - N/A   Clear
10:53 PM 34.0 °F - 28.9 °F 82% 30.42 in 10.0 mi Calm Calm - N/A   Clear
11:53 PM 33.1 °F 28.7 °F 28.9 °F 85% 30.42 in 10.0 mi NNW 4.6 mph - N/A   Clear